TimeCDT,TemperatureF,Dew PointF,Humidity,Sea Level PressureIn,VisibilityMPH,Wind Direction,Wind SpeedMPH,Gust SpeedMPH,PrecipitationIn,Events,Conditions,WindDirDegrees,DateUTC
12:15 AM,74.1,59.9,61,29.73,10.0,SE,10.4,-,N/A,,Clear,140,2013-03-18 05:15:00
12:35 AM,72.9,60.1,64,29.73,10.0,SSE,8.1,-,N/A,,Clear,150,2013-03-18 05:35:00
12:55 AM,72.0,60.4,67,29.73,10.0,SSE,6.9,-,N/A,,Clear,150,2013-03-18 05:55:00
1:15 AM,71.2,60.8,69,29.73,10.0,SSE,9.2,-,N/A,,Clear,160,2013-03-18 06:15:00
1:55 AM,70.0,61.3,74,29.73,7.0,SSE,6.9,-,N/A,,Clear,160,2013-03-18 06:55:00
2:15 AM,69.1,61.2,76,29.73,7.0,SE,4.6,-,N/A,,Clear,140,2013-03-18 07:15:00
2:35 AM,68.0,61.0,78,29.73,7.0,SSE,4.6,-,N/A,,Clear,150,2013-03-18 07:35:00
2:55 AM,67.3,61.0,80,29.72,7.0,SSE,3.5,-,N/A,,Clear,160,2013-03-18 07:55:00
3:15 AM,66.7,61.0,82,29.71,7.0,SSE,6.9,-,N/A,,Clear,160,2013-03-18 08:15:00
3:35 AM,66.2,61.0,83,29.71,5.0,South,6.9,-,N/A,,Haze,170,2013-03-18 08:35:00
3:55 AM,65.7,61.0,85,29.71,5.0,SSE,6.9,-,N/A,,Haze,160,2013-03-18 08:55:00
4:15 AM,65.1,61.0,86,29.70,4.0,SSE,6.9,-,N/A,,Clear,160,2013-03-18 09:15:00
4:35 AM,64.8,61.0,88,29.69,2.0,SSE,9.2,-,N/A,,Mostly Cloudy,150,2013-03-18 09:35:00
4:55 AM,64.9,61.3,88,29.69,0.8,SSE,6.9,-,N/A,,Overcast,160,2013-03-18 09:55:00
5:15 AM,65.1,61.7,89,29.70,1.2,South,5.8,-,N/A,,Overcast,170,2013-03-18 10:15:00
5:35 AM,64.6,61.2,89,29.70,4.0,SSE,6.9,-,N/A,,Scattered Clouds,160,2013-03-18 10:35:00
5:55 AM,64.0,60.8,89,29.70,2.5,SSE,5.8,-,N/A,,Clear,160,2013-03-18 10:55:00
6:15 AM,63.5,60.3,89,29.71,2.5,SE,3.5,-,N/A,,Clear,140,2013-03-18 11:15:00
6:35 AM,62.8,59.7,90,29.73,2.0,Calm,Calm,-,N/A,,Scattered Clouds,0,2013-03-18 11:35:00
6:55 AM,63.1,59.9,89,29.75,0.2,East,4.6,-,N/A,Fog,Fog,100,2013-03-18 11:55:00
7:15 AM,63.5,60.4,90,29.79,0.2,WNW,15.0,-,N/A,Fog,Fog,300,2013-03-18 12:15:00
7:35 AM,63.3,60.3,90,29.80,0.5,NW,10.4,-,N/A,Fog,Fog,320,2013-03-18 12:35:00
7:55 AM,63.1,60.1,90,29.80,0.5,NNW,5.8,-,N/A,Fog,Fog,340,2013-03-18 12:55:00
8:15 AM,63.0,59.9,90,29.80,0.2,Calm,Calm,-,N/A,Fog,Fog,0,2013-03-18 13:15:00
8:35 AM,63.1,60.3,90,29.80,0.2,NNE,4.6,-,N/A,Fog,Fog,30,2013-03-18 13:35:00
8:55 AM,63.5,60.8,91,29.80,0.2,ENE,4.6,-,N/A,Fog,Fog,70,2013-03-18 13:55:00
9:15 AM,63.9,61.0,90,29.81,1.5,NE,4.6,-,N/A,,Overcast,50,2013-03-18 14:15:00
9:35 AM,64.0,61.2,90,29.83,2.0,North,3.5,-,N/A,,Overcast,10,2013-03-18 14:35:00
9:55 AM,64.6,61.5,90,29.83,4.0,Calm,Calm,-,N/A,,Mostly Cloudy,0,2013-03-18 14:55:00
10:15 AM,66.7,62.1,85,29.83,7.0,Calm,Calm,-,N/A,,Clear,0,2013-03-18 15:15:00
10:35 AM,70.5,60.6,71,29.84,10.0,Calm,Calm,-,N/A,,Clear,0,2013-03-18 15:35:00
10:55 AM,73.6,59.5,61,29.84,10.0,WNW,4.6,-,N/A,,Clear,300,2013-03-18 15:55:00
11:15 AM,75.9,58.6,55,29.84,10.0,WNW,5.8,-,N/A,,Clear,290,2013-03-18 16:15:00
11:35 AM,78.6,57.4,48,29.84,10.0,WNW,8.1,-,N/A,,Clear,300,2013-03-18 16:35:00
11:55 AM,81.5,55.6,41,29.83,10.0,NNW,9.2,-,N/A,,Clear,330,2013-03-18 16:55:00
12:15 PM,83.7,54.3,36,29.83,10.0,NW,10.4,-,N/A,,Clear,320,2013-03-18 17:15:00
12:35 PM,87.3,45.1,23,29.83,10.0,North,13.8,18.4,N/A,,Clear,350,2013-03-18 17:35:00
12:55 PM,89.4,38.8,17,29.83,10.0,NNW,17.3,23.0,N/A,,Clear,340,2013-03-18 17:55:00
1:15 PM,90.9,28.8,11,29.82,10.0,North,16.1,26.5,N/A,,Clear,350,2013-03-18 18:15:00
1:35 PM,91.9,19.4,7,29.82,10.0,North,20.7,31.1,N/A,,Clear,350,2013-03-18 18:35:00
1:55 PM,92.1,13.8,6,29.82,10.0,NNW,18.4,29.9,N/A,,Clear,330,2013-03-18 18:55:00
2:15 PM,92.5,13.3,5,29.81,10.0,NNW,18.4,27.6,N/A,,Clear,330,2013-03-18 19:15:00
2:35 PM,93.0,9.0,4,29.80,10.0,North,12.7,24.2,N/A,,Clear,350,2013-03-18 19:35:00
2:55 PM,93.6,2.3,4,29.80,10.0,North,11.5,24.2,N/A,,Clear,350,2013-03-18 19:55:00
3:15 PM,94.1,5.2,4,29.79,10.0,WNW,13.8,-,N/A,,Clear,300,2013-03-18 20:15:00
3:35 PM,94.1,4.3,4,29.78,10.0,North,9.2,18.4,N/A,,Clear,350,2013-03-18 20:35:00
3:55 PM,93.9,6.3,4,29.78,10.0,NW,9.2,18.4,N/A,,Clear,320,2013-03-18 20:55:00
4:15 PM,93.9,6.8,4,29.77,10.0,NW,9.2,18.4,N/A,,Clear,310,2013-03-18 21:15:00
4:35 PM,93.9,6.6,4,29.77,10.0,NW,12.7,-,N/A,,Clear,310,2013-03-18 21:35:00
4:55 PM,94.6,3.9,4,29.76,10.0,WNW,4.6,17.3,N/A,,Clear,300,2013-03-18 21:55:00
5:15 PM,94.6,4.8,4,29.76,10.0,WNW,11.5,18.4,N/A,,Clear,300,2013-03-18 22:15:00
5:35 PM,94.5,4.8,4,29.76,10.0,NW,8.1,17.3,N/A,,Clear,310,2013-03-18 22:35:00
5:55 PM,94.6,-1.5,4,29.76,10.0,WNW,10.4,-,N/A,,Clear,290,2013-03-18 22:55:00
6:15 PM,94.6,-4.9,4,29.76,10.0,NW,9.2,-,N/A,,Clear,320,2013-03-18 23:15:00
6:35 PM,94.3,0.3,4,29.76,10.0,NNW,8.1,-,N/A,,Clear,330,2013-03-18 23:35:00
6:55 PM,93.7,2.1,4,29.77,10.0,NW,5.8,-,N/A,,Clear,310,2013-03-18 23:55:00
7:15 PM,93.4,0.7,4,29.77,10.0,North,6.9,-,N/A,,Clear,350,2013-03-19 00:15:00
7:35 PM,91.8,3.0,4,29.78,10.0,North,4.6,-,N/A,,Clear,360,2013-03-19 00:35:00
7:55 PM,89.4,6.1,4,29.78,10.0,North,3.5,-,N/A,,Clear,10,2013-03-19 00:55:00
8:15 PM,87.1,8.4,5,29.79,10.0,North,4.6,-,N/A,,Clear,10,2013-03-19 01:15:00
8:35 PM,84.0,10.8,6,29.80,10.0,North,5.8,-,N/A,,Clear,10,2013-03-19 01:35:00
8:55 PM,81.3,12.0,7,29.80,10.0,North,5.8,-,N/A,,Clear,10,2013-03-19 01:55:00
9:15 PM,79.7,12.4,8,29.81,10.0,NNE,4.6,-,N/A,,Clear,20,2013-03-19 02:15:00
9:35 PM,79.2,11.3,8,29.82,10.0,Calm,Calm,-,N/A,,Clear,0,2013-03-19 02:35:00
9:55 PM,77.2,9.5,8,29.82,10.0,North,3.5,-,N/A,,Clear,350,2013-03-19 02:55:00
10:15 PM,75.2,6.4,7,29.83,10.0,Calm,Calm,-,N/A,,Clear,0,2013-03-19 03:15:00
10:35 PM,72.3,11.5,10,29.83,10.0,Calm,Calm,-,N/A,,Clear,0,2013-03-19 03:35:00
10:55 PM,70.5,12.6,11,29.85,10.0,East,6.9,-,N/A,,Clear,90,2013-03-19 03:55:00
11:15 PM,72.9,9.7,9,29.87,10.0,North,8.1,-,N/A,,Clear,10,2013-03-19 04:15:00
11:35 PM,73.4,26.4,17,29.87,10.0,ENE,4.6,-,N/A,,Clear,70,2013-03-19 04:35:00
11:55 PM,70.9,30.6,22,29.88,10.0,ESE,3.5,-,N/A,,Clear,110,2013-03-19 04:55:00